Regional Weather Roundup
Issued by NWS Raleigh/Durham, NC

Home | Current Version | Previous Version | Text Only | Print | Product List | Glossary On
Versions: 1 2 3 4 5 6 7 8 9 10 11 12 13 14 15 16 17 18 19 20 21 22 23 24 25 26 27 28 29 30 31 32 33 34 35 36 37 38 39 40 41 42 43 44 45 46 47 48 49 50
000
ASUS42 KRAH 060810
RWRRAH
NORTH CAROLINA WEATHER ROUNDUP
NATIONAL WEATHER SERVICE RALEIGH NC
300 AM EST TUE DEC 06 2016

NOTE: "FAIR" INDICATES FEW OR NO CLOUDS BELOW 12,000 FEET WITH NO
SIGNIFICANT WEATHER AND/OR OBSTRUCTIONS TO VISIBILITY.

NCZ001-053-055-056-065-067-060900-
WESTERN NORTH CAROLINA

CITY           SKY/WX    TMP DP  RH WIND       PRES   REMARKS
ASHEVILLE      CLOUDY    46  44  93 VRB5      29.92F FOG
JEFFERSON      NOT AVBL
HICKORY        CLOUDY    47  46  97 NE6       29.97F
RUTHERFORDTON  NOT AVBL
MOUNT AIRY     NOT AVBL
BOONE          LGT RAIN  38  38 100 E3        29.97S
$$

NCZ021-022-025-041-071-084-088-060900-
CENTRAL NORTH CAROLINA

CITY           SKY/WX    TMP DP  RH WIND       PRES   REMARKS
CHARLOTTE      CLOUDY    49  46  90 NE10      29.95S
GREENSBORO     CLOUDY    46  44  93 E9        29.98F
WINSTON-SALEM  CLOUDY    46  43  89 E6        30.00F
RALEIGH-DURHAM LGT RAIN  47  44  90 E14       30.01F
FORT BRAGG     LGT RAIN  48  46  92 E12       29.96F
FAYETTEVILLE   LGT RAIN  49  47  93 E13       29.97F
BURLINGTON     CLOUDY    46  44  93 E8        30.00F
LAURINBURG     CLOUDY    49  46  90 E14       29.95F
$$

NCZ011-015-027-028-043-044-047-080-103-060900-
NORTHEASTERN NORTH CAROLINA

CITY           SKY/WX    TMP DP  RH WIND       PRES   REMARKS
ROCKY MT-WILSO LGT RAIN  46  46 100 NE5       30.07F
GREENVILLE     NOT AVBL
ELIZABETH CITY LGT RAIN  48  45  89 NW3       30.11R
MANTEO         NOT AVBL
CAPE HATTERAS  LGT RAIN  52  50  93 NE7       30.05S
$$

NCZ078-087-090-091-093-098-101-060900-
SOUTHEASTERN NORTH CAROLINA

CITY           SKY/WX    TMP DP  RH WIND       PRES   REMARKS
LUMBERTON      LGT RAIN  48  47  96 E13G21    29.96F
GOLDSBORO      LGT RAIN  48  48 100 NE7       30.03F
KENANSVILLE    NOT AVBL
NEW BERN       RAIN      48  45  89 NE7       30.06S
CHERRY POINT   LGT RAIN  50  47  89 NE13      30.05R
BEAUFORT       LGT RAIN  51  49  92 NE7G18    30.03S FOG
JACKSONVILLE   CLOUDY    48  47  96 N7        30.03F
WILMINGTON     RAIN      47  47 100 N13       30.01F FOG
$$




USA.gov is the U.S. government's official web portal to all federal, state and local government web resources and services.